Weather History for Buenos Aires, Argentina

Change the Weather History Date:

Friday, July 12, 2013

  Actual Average Record
Temperature  
Mean Temperature 52 °F -  
Max Temperature 54 °F 59 °F 75 °F (2006)
Min Temperature 51 °F 47 °F 35 °F (2007)
Degree Days  
Heating Degree Days 12    
Growing Degree Days 2 (Base 50)    
Moisture  
Dew Point 51 °F    
Average Humidity 87    
Maximum Humidity 100    
Minimum Humidity 77    
Precipitation  
Precipitation 0.00 in 0.08 in - ()
Sea Level Pressure  
Sea Level Pressure 30.13 in    
Wind  
Wind Speed 7 mph ()    
Max Wind Speed 14 mph    
Max Gust Speed -    
Visibility 3.7 miles    
Events Rain    
Averages and records for this station are not official NWS values.
T = Trace of Precipitation, MM = Missing Value Source: Averaged Metar Reports

Daily Weather History Graph

Daily Weather History Graph

Search for Another Location

Airport:

Trip Planner

Search our weather history database for the weather conditions in past years. The results will help you decide how hot, cold, wet, or windy it might be!

Date:

Astronomy

Jul. 12, 2013 Rise Set
Actual Time 7:59 AM ART 5:59 PM ART
Civil Twilight 7:31 AM ART 6:27 PM ART
Nautical Twilight 7:00 AM ART 6:58 PM ART
Astronomical Twilight 6:30 AM ART 7:28 PM ART
Moon 10:14 AM ART (7/12) 10:17 PM ART (7/12)
Length of Visible Light 10h 55m
Length of Day
10h 00m
Waxing Crescent, 17% of the Moon is Illuminated
Jul 12
Waxing Crescent
Jul 16
First Quarter
Jul 22
Full
Jul 29
Last Quarter
Aug 6
New

Hourly Weather History & Observations

Time (ART) Temp. Dew Point Humidity Pressure Visibility Wind Dir Wind Speed Gust Speed Precip Events Conditions
12:00 AM 57 °F 55 °F 92% 30.09 in 2 mi South 4.6 mph - -   Mist
12:00 AM 57.2 °F 55.4 °F 94% 30.09 in 1.9 mi South 4.6 mph - N/A   Overcast
1:00 AM 55.4 °F 55.4 °F 100% 30.09 in 1.6 mi South 6.9 mph - N/A   Overcast
2:00 AM 56 °F 55 °F 95% 30.12 in 2 mi South 11.5 mph - - Rain Light Drizzle
2:00 AM 55.4 °F 55.4 °F 100% 30.09 in 1.6 mi South 11.5 mph - N/A   Overcast
3:00 AM 56 °F 55 °F 95% 30.12 in 2 mi South 11.5 mph - - Rain Light Drizzle
3:00 AM 55.4 °F 55.4 °F 100% 30.12 in 2.5 mi South 11.5 mph - N/A   Overcast
4:00 AM 54 °F 51 °F 87% 30.14 in 6 mi South 10.4 mph - -   Mist
4:00 AM 55.4 °F 53.6 °F 94% 30.12 in 3.7 mi South 10.4 mph - N/A   Overcast
5:00 AM 54 °F 51 °F 87% 30.14 in 6 mi South 10.4 mph - -   Mist
5:00 AM 55.4 °F 53.6 °F 94% 30.12 in 2.5 mi South 13.8 mph - N/A   Overcast
6:00 AM 54 °F 51 °F 87% 30.14 in 6 mi South 10.4 mph - -   Mist
6:00 AM 53.6 °F 51.8 °F 94% 30.12 in 5.6 mi South 10.4 mph - N/A   Overcast
7:00 AM 53.6 °F 50.0 °F 88% 30.12 in 5.6 mi South 10.4 mph - N/A   Overcast
7:17 AM 53.6 °F 51.8 °F 94% 30.12 in 5.6 mi South 5.8 mph - N/A   Overcast
8:00 AM 53.6 °F 50.0 °F 88% 30.15 in 5.6 mi South 11.5 mph - N/A   Overcast
9:00 AM 52 °F 49 °F 84% 30.18 in 6 mi SW 6.7 mph - -   Mist
9:00 AM 51.8 °F 48.2 °F 88% 30.15 in 5.6 mi SW 3.5 mph - N/A   Overcast
10:00 AM 53.6 °F 50.0 °F 88% 30.18 in 5.0 mi East 3.5 mph - N/A   Overcast
11:00 AM 53.6 °F 48.2 °F 82% 30.18 in 4.3 mi East 6.9 mph - N/A   Scattered Clouds
12:00 PM 53 °F 48 °F 79% 30.21 in 5 mi East 6.9 mph - -   Mist
12:00 PM 53.6 °F 48.2 °F 82% 30.18 in 6.2 mi East 6.9 mph - N/A   Scattered Clouds
1:00 PM 53.6 °F 48.2 °F 82% 30.15 in 4.3 mi East 4.6 mph - N/A   Mostly Cloudy
2:00 PM 53.6 °F 48.2 °F 82% 30.15 in 5.0 mi East 4.6 mph - N/A   Mostly Cloudy
3:00 PM 54 °F 49 °F 77% 30.14 in 4 mi East 8.9 mph - -   Mist
3:00 PM 53.6 °F 48.2 °F 82% 30.12 in 3.7 mi East 4.6 mph - N/A   Mostly Cloudy
4:00 PM 53.6 °F 48.2 °F 82% 30.09 in 2.5 mi NE 3.5 mph - N/A   Scattered Clouds
5:00 PM 53.6 °F 48.2 °F 82% 30.12 in 1.9 mi East 3.5 mph - N/A   Scattered Clouds
6:00 PM 53.6 °F 48.2 °F 82% 30.09 in 1.7 mi Calm Calm - N/A   Mist
7:00 PM 53.6 °F 50.0 °F 88% 30.12 in 1.9 mi North 2.3 mph - N/A   Scattered Clouds
8:00 PM 53.6 °F 48.2 °F 82% 30.12 in 1.9 mi NW 3.5 mph - N/A   Mostly Cloudy
9:00 PM 53 °F 48 °F 79% 30.13 in 2 mi Calm Calm - -   Mist
9:00 PM 53.6 °F 48.2 °F 82% 30.12 in 2.5 mi Calm Calm - N/A   Scattered Clouds
10:00 PM 53.6 °F 48.2 °F 82% 30.12 in 1.9 mi NW 3.5 mph - N/A   Mostly Cloudy
11:00 PM 53.6 °F 48.2 °F 82% 30.12 in 3.1 mi North 4.6 mph - N/A   Mostly Cloudy